MST,Max TemperatureF,Mean TemperatureF,Min TemperatureF,Max Dew PointF,MeanDew PointF,Min DewpointF,Max Humidity, Mean Humidity, Min Humidity, Max Sea Level PressureIn, Mean Sea Level PressureIn, Min Sea Level PressureIn, Max VisibilityMiles, Mean VisibilityMiles, Min VisibilityMiles, Max Wind SpeedMPH, Mean Wind SpeedMPH, Max Gust SpeedMPH,PrecipitationIn, CloudCover, Events, WindDirDegrees
2012-1-1,33,26,19,23,17,9,93,70,40,30.61,30.47,30.27,10,10,10,16,4,20,0.00,0,,249
2012-1-2,46,32,19,27,22,16,93,72,37,30.60,30.47,30.30,10,10,10,6,1,,0.00,0,,194
2012-1-3,42,33,24,27,23,19,100,70,39,30.38,30.23,30.16,10,10,10,12,3,,0.00,0,,197
2012-1-4,55,39,23,32,25,19,87,70,33,30.39,30.33,30.26,10,10,10,7,2,,0.00,0,,208
2012-1-5,64,46,28,32,26,19,93,54,19,30.26,30.08,29.91,10,10,10,10,2,,0.00,0,,207
2012-1-6,53,38,24,25,21,16,93,57,22,30.09,30.00,29.89,10,10,10,15,5,22,0.00,0,,221
2012-1-7,32,26,19,32,24,18,100,90,74,30.14,30.04,29.93,10,9,2,8,1,,0.00,3,Snow,311
2012-1-8,41,28,15,25,18,12,100,71,31,30.19,30.14,30.11,10,10,10,9,3,,0.00,0,,178
2012-1-9,51,35,19,27,22,18,93,74,30,30.26,30.19,30.14,10,10,10,8,2,,0.00,0,,173
2012-1-10,60,42,23,28,19,7,100,51,16,30.12,29.91,29.78,10,10,10,20,4,26,0.00,0,,259
2012-1-11,44,26,6,27,15,5,93,74,27,30.16,30.04,29.81,10,8,1,18,9,30,0.00,4,Snow,91
2012-1-12,41,21,1,14,5,0,92,53,21,30.11,30.05,29.96,10,10,10,7,2,,0.00,0,,200
2012-1-13,46,32,19,14,7,1,74,34,17,30.10,30.03,29.98,10,10,10,28,7,34,0.00,,,257
2012-1-14,55,40,26,18,10,3,59,28,13,30.11,30.02,29.91,10,10,10,17,5,24,0.00,,,225
2012-1-15,59,50,39,21,7,-2,32,18,11,29.89,29.78,29.68,10,10,10,18,10,31,0.00,,,232
2012-1-16,48,31,10,25,17,3,100,69,16,30.03,29.77,29.60,10,8,2,16,8,23,0.00,,Snow,13
2012-1-17,33,19,5,14,8,-4,92,63,20,30.11,30.04,29.98,10,10,10,22,5,38,0.00,,,133
2012-1-18,50,34,17,18,10,3,73,31,20,29.99,29.83,29.67,10,10,10,34,12,61,0.00,,,260
2012-1-19,64,52,41,28,24,19,61,36,22,29.75,29.66,29.58,10,10,10,48,23,61,0.00,,,292
2012-1-20,55,44,30,27,22,18,86,39,23,29.96,29.79,29.58,10,10,10,34,18,50,0.00,,,267
2012-1-21,53,37,21,30,26,21,100,71,30,29.90,29.52,29.27,10,10,10,21,3,34,0.00,,,1
2012-1-22,48,40,30,27,13,0,65,39,22,29.84,29.58,29.25,10,10,10,25,7,34,0.00,,,256
2012-1-23,42,30,17,23,17,9,86,69,39,29.84,29.81,29.78,10,10,10,6,1,,0.00,,,266
2012-1-24,32,30,28,25,22,19,80,73,64,29.90,29.82,29.78,10,10,10,6,2,,0.00,,,220
2012-1-25,60,50,41,19,15,10,42,25,14,30.09,29.99,29.93,10,10,10,25,14,38,0.00,,,269
2012-1-26,46,39,32,19,18,16,60,39,32,30.11,30.10,30.08,10,10,10,18,13,26,0.00,,,273
2012-1-27,32,26,19,23,19,14,86,74,59,30.30,30.23,30.15,10,10,7,8,5,,0.00,,Snow,110
2012-1-28,46,30,14,14,6,-4,93,43,12,30.24,30.17,30.14,10,10,10,21,7,29,0.00,,,255
2012-1-29,55,44,32,19,11,0,56,26,16,30.19,30.12,30.00,10,10,10,22,9,31,0.00,,,259
2012-1-30,60,45,30,18,11,3,60,29,12,29.98,29.88,29.78,10,10,10,29,10,38,0.00,,,255
2012-1-31,51,40,30,19,14,10,64,35,19,30.05,29.98,29.91,10,10,10,21,7,28,0.00,,,148